Weather History for Chino, CA

Change the Weather History Date:

Monday, October 10, 2011

  Actual Average Record
Temperature  
Mean Temperature 66 °F -  
Max Temperature 84 °F 81 °F 98 °F (2010)
Min Temperature 48 °F 49 °F 37 °F (1996)
Cooling Degree Days 1    
Growing Degree Days 16 (Base 50)    
Moisture  
Dew Point 47 °F    
Average Humidity 57    
Maximum Humidity 90    
Minimum Humidity 21    
Precipitation  
Precipitation 0.00 in - - ()
Sea Level Pressure  
Sea Level Pressure 29.91 in    
Wind  
Wind Speed 2 mph (WSW)    
Max Wind Speed 12 mph    
Max Gust Speed -    
Visibility 9 miles    
Events      
Averages and records for this station are not official NWS values.
T = Trace of Precipitation, MM = Missing Value Source: NWS Daily Summary

Daily Weather History Graph

Daily Weather History Graph

Search for Another Location

Airport:

Trip Planner

Search our weather history database for the weather conditions in past years. The results will help you decide how hot, cold, wet, or windy it might be!

Date:

Astronomy

Oct. 10, 2011 Rise Set
Actual Time 6:51 AM PDT 6:23 PM PDT
Civil Twilight 6:26 AM PDT 6:48 PM PDT
Nautical Twilight 5:57 AM PDT 7:17 PM PDT
Astronomical Twilight 5:28 AM PDT 7:45 PM PDT
Moon 5:29 PM PDT (10/10) 5:38 AM PDT (10/10)
Length of Visible Light 12h 21m
Length of Day
11h 31m
Waxing Gibbous, 98% of the Moon is Illuminated
Oct 10
Waxing Gibbous
Oct 11
Full
Oct 19
Last Quarter
Oct 26
New
Nov 2
First Quarter

Hourly Weather History & Observations

Time (PDT) Temp. Dew Point Humidity Pressure Visibility Wind Dir Wind Speed Gust Speed Precip Events Conditions
12:53 AM 54.0 °F 48.0 °F 80% 29.91 in 8.0 mi Calm Calm - N/A   Clear
1:53 AM 54.0 °F 48.0 °F 80% 29.91 in 7.0 mi Calm Calm - N/A   Clear
2:53 AM 52.0 °F 48.0 °F 86% 29.91 in 7.0 mi Calm Calm - N/A   Clear
3:53 AM 53.1 °F 48.0 °F 83% 29.91 in 8.0 mi Calm Calm - N/A   Clear
4:53 AM 50.0 °F 46.0 °F 86% 29.91 in 9.0 mi Calm Calm - N/A   Clear
5:53 AM 51.1 °F 46.9 °F 86% 29.92 in 9.0 mi Calm Calm - N/A   Clear
6:53 AM 48.9 °F 46.0 °F 90% 29.93 in 10.0 mi Calm Calm - N/A   Partly Cloudy
8:53 AM 63.0 °F 48.0 °F 58% 29.95 in 10.0 mi Calm Calm - N/A   Clear
9:53 AM 66.9 °F 48.0 °F 51% 29.96 in 10.0 mi Calm Calm - N/A   Clear
11:53 AM 79.0 °F 44.1 °F 29% 29.93 in 10.0 mi Calm Calm - N/A   Scattered Clouds
12:53 PM 82.9 °F 41.0 °F 23% 29.91 in 10.0 mi SW 8.1 mph - N/A   Mostly Cloudy
1:53 PM 84.0 °F 39.9 °F 21% 29.89 in 10.0 mi WSW 9.2 mph - N/A   Mostly Cloudy
2:53 PM 82.9 °F 43.0 °F 24% 29.88 in 10.0 mi West 8.1 mph - N/A   Mostly Cloudy
3:53 PM 82.9 °F 46.0 °F 27% 29.87 in 10.0 mi SW 11.5 mph - N/A   Mostly Cloudy
4:53 PM 80.1 °F 48.9 °F 34% 29.87 in 10.0 mi SW 11.5 mph - N/A   Mostly Cloudy
5:53 PM 75.0 °F 48.9 °F 40% 29.87 in 10.0 mi WSW 9.2 mph - N/A   Scattered Clouds
6:53 PM 69.1 °F 48.9 °F 49% 29.89 in 10.0 mi WSW 6.9 mph - N/A   Scattered Clouds
7:53 PM 66.0 °F 48.9 °F 54% 29.90 in 10.0 mi West 6.9 mph - N/A   Partly Cloudy
8:53 PM 60.1 °F 51.1 °F 72% 29.91 in 10.0 mi NW 6.9 mph - N/A   Clear
9:53 PM 64.0 °F 50.0 °F 60% 29.91 in 9.0 mi Calm Calm - N/A   Clear
10:53 PM 62.1 °F 50.0 °F 65% 29.91 in 8.0 mi Calm Calm - N/A   Clear